This is the latest recevied weather packets stored in our database for station/object WW3TRG. If no packets are shown the sender has not sent any weather packets the latest 10 day(s).
| Time | Temp. | Humidity | Pressure | Rain* | Wind** | Luminosity | Snow |
|---|---|---|---|---|---|---|---|
| 1777763561 | 12.22° C | 45% | 1010.6 hPa | 0 mm | - | 22 W/m² | - |
| 1777763259 | 12.22° C | 44% | 1010.6 hPa | 0 mm | - | 28 W/m² | - |
| 1777762957 | 12.22° C | 46% | 1010.9 hPa | 0 mm | - | 33 W/m² | - |
| 1777762653 | 12.22° C | 45% | 1010.8 hPa | 0 mm | - | 32 W/m² | - |
| 1777762350 | 12.78° C | 44% | 1010.7 hPa | 0 mm | - | 31 W/m² | - |
| 1777762046 | 12.22° C | 44% | 1010.8 hPa | 0 mm | - | 32 W/m² | - |
| 1777761743 | 12.78° C | 43% | 1010.7 hPa | 0 mm | - | 39 W/m² | - |
| 1777761441 | 12.78° C | 44% | 1010.8 hPa | 0 mm | - | 44 W/m² | - |
| 1777761138 | 12.78° C | 44% | 1010.6 hPa | 0 mm | - | 48 W/m² | - |
| 1777760836 | 12.78° C | 43% | 1010.6 hPa | 0 mm | - | 49 W/m² | - |
| 1777760533 | 12.78° C | 44% | 1010.4 hPa | 0 mm | - | 48 W/m² | - |
| 1777760229 | 12.78° C | 44% | 1010.8 hPa | 0 mm | - | 48 W/m² | - |
| 1777759925 | 12.78° C | 43% | 1010.6 hPa | 0 mm | - | 50 W/m² | - |
| 1777759621 | 12.78° C | 43% | 1010.5 hPa | 0 mm | - | 55 W/m² | - |
| 1777759318 | 13.33° C | 43% | 1010.4 hPa | 0 mm | - | 59 W/m² | - |
| 1777759015 | 12.78° C | 42% | 1010.7 hPa | 0 mm | - | 59 W/m² | - |
| 1777758712 | 13.33° C | 41% | 1010.4 hPa | 0 mm | - | 61 W/m² | - |
| 1777758409 | 13.33° C | 41% | 1010.4 hPa | 0 mm | - | 55 W/m² | - |
| 1777758106 | 14.44° C | 41% | 1010.4 hPa | 0 mm | - | 66 W/m² | - |
| 1777757803 | 14.44° C | 41% | 1010.3 hPa | 0 mm | - | 280 W/m² | - |
| 1777757501 | 15° C | 43% | 1010.2 hPa | 0 mm | - | 250 W/m² | - |
| 1777757199 | 13.33° C | 42% | 1010.4 hPa | 0 mm | - | 98 W/m² | - |
| 1777756897 | 13.33° C | 43% | 1010.3 hPa | 0 mm | - | 76 W/m² | - |
| 1777756592 | 13.33° C | 42% | 1010.1 hPa | 0 mm | - | 73 W/m² | - |
| 1777756290 | 13.33° C | 43% | 1010 hPa | 0 mm | - | 84 W/m² | - |
* Rain latest hour (hover to see other rain measurements)
** Current wind speed in m/s (hover to see current wind gust speed)